Total_Precipitation_Accumulation
0.80 0.65 0.57 0.57 0.56 0.51 0.57 0.81 1.30 1.84 2.30 2.58 2.74 2.80 2.78 2.63 2.47 2.50 2.58 2.52 2.38 2.31 2.24 2.06 1.97 1.96 1.91 1.88 1.81 1.85 1.94 2.03 2.08 2.00 1.95 1.96 2.00 1.87 1.69 1.62 1.58 1.67 1.60 1.53
0.74 0.59 0.59 0.70 0.68 0.70 0.76 0.95 1.24 1.73 2.41 2.45 2.36 2.20 2.25 2.28 2.28 2.41 2.62 2.66 2.49 2.41 2.31 2.15 2.04 1.89 1.82 1.73 1.61 1.65 1.70 1.90 2.00 1.94 1.87 1.78 1.81 1.78 1.73 1.67 1.64 1.65 1.61 1.53
0.98 0.74 0.91 1.36 1.09 1.06 1.17 1.22 1.41 1.88 2.11 1.85 1.88 1.93 2.03 2.06 2.13 2.36 2.56 2.58 2.49 2.49 2.38 2.25 2.22 2.08 2.03 1.82 1.60 1.67 1.70 1.71 1.83 1.88 1.91 1.89 1.80 1.78 1.82 1.85 1.83 1.67 1.56 1.53
1.07 1.28 1.92 1.78 1.16 1.10 1.24 1.35 1.27 1.36 1.41 1.50 1.64 1.77 1.92 1.97 2.10 2.37 2.55 2.70 2.68 2.58 2.46 2.20 2.06 2.02 1.95 1.84 1.70 1.72 1.69 1.61 1.67 1.73 1.82 1.85 1.81 1.82 1.83 1.81 1.79 1.74 1.62 1.56
1.41 1.83 2.08 1.80 1.20 1.13 1.39 1.69 1.31 1.26 1.21 1.34 1.46 1.66 2.10 2.13 2.14 2.33 2.54 2.57 2.58 2.48 2.44 2.34 2.10 2.02 1.89 1.79 1.78 1.70 1.57 1.48 1.44 1.45 1.54 1.58 1.64 1.72 1.82 1.84 1.74 1.62 1.52 1.46
1.63 2.20 2.70 2.30 1.18 0.83 1.24 2.19 1.51 1.19 1.12 1.31 1.54 2.05 2.25 1.99 1.93 1.98 2.05 2.08 2.08 2.06 2.06 2.11 1.93 1.87 1.84 1.83 1.81 1.69 1.50 1.35 1.29 1.33 1.45 1.51 1.59 1.75 1.78 1.79 1.64 1.44 1.36 1.38
1.68 2.23 2.44 1.45 0.92 1.01 2.08 2.53 1.81 1.47 1.31 1.34 1.56 1.75 1.70 1.60 1.69 1.80 1.86 1.91 1.83 1.79 1.85 1.84 1.75 1.75 1.78 1.76 1.67 1.50 1.37 1.36 1.37 1.38 1.47 1.52 1.64 1.76 1.71 1.55 1.52 1.44 1.36 1.38
1.97 2.47 2.57 1.17 0.98 1.68 2.11 1.68 1.62 1.58 1.51 1.44 1.36 1.32 1.39 1.53 1.79 1.89 2.00 1.94 1.87 1.84 1.76 1.71 1.76 1.82 1.79 1.73 1.50 1.39 1.38 1.42 1.47 1.45 1.37 1.36 1.57 1.68 1.62 1.56 1.50 1.44 1.38 1.30
2.17 2.34 1.79 1.12 1.19 1.34 1.46 1.53 1.49 1.45 1.35 1.25 1.27 1.29 1.27 1.43 1.63 1.80 1.95 1.93 1.92 1.87 1.76 1.69 1.71 1.78 1.72 1.56 1.35 1.27 1.39 1.52 1.56 1.49 1.52 1.49 1.47 1.54 1.61 1.60 1.45 1.33 1.28 1.22
1.97 1.88 1.45 1.18 1.13 1.14 1.26 1.36 1.32 1.32 1.27 1.22 1.36 1.37 1.30 1.37 1.52 1.72 1.82 1.72 1.71 1.69 1.62 1.54 1.48 1.46 1.47 1.38 1.30 1.32 1.42 1.53 1.57 1.59 1.63 1.58 1.47 1.33 1.31 1.31 1.29 1.22 1.17 1.08
2.31 2.10 1.75 1.37 1.21 1.23 1.23 1.27 1.33 1.41 1.36 1.33 1.35 1.35 1.35 1.41 1.48 1.49 1.59 1.64 1.62 1.57 1.47 1.33 1.27 1.22 1.18 1.19 1.23 1.29 1.36 1.42 1.46 1.47 1.49 1.53 1.41 1.26 1.22 1.14 1.09 1.07 0.99 0.92
2.80 2.31 2.15 1.68 1.33 1.34 1.36 1.36 1.38 1.36 1.25 1.19 1.16 1.19 1.23 1.25 1.30 1.33 1.42 1.54 1.62 1.51 1.42 1.26 1.20 1.19 1.12 1.08 1.16 1.24 1.29 1.26 1.22 1.26 1.30 1.32 1.35 1.26 1.06 0.90 0.81 0.76 0.75 0.71
2.27 1.88 1.70 1.54 1.38 1.41 1.37 1.18 1.12 1.17 1.15 1.10 1.06 1.09 1.14 1.10 1.11 1.18 1.29 1.33 1.42 1.40 1.25 1.21 1.15 1.08 1.06 1.06 1.09 1.15 1.23 1.20 1.09 1.02 1.09 1.13 1.12 1.20 1.12 0.89 0.65 0.56 0.59 0.62
1.61 1.53 1.49 1.29 1.18 1.12 1.03 0.94 0.93 1.01 1.03 0.97 0.94 0.98 1.03 1.01 1.00 1.06 1.19 1.16 1.18 1.13 1.07 1.10 1.08 1.04 0.96 0.98 1.06 1.09 1.09 1.04 0.97 0.99 0.97 0.94 0.95 0.96 0.98 1.05 0.93 0.71 0.60 0.60
1.25 1.27 1.22 1.02 0.96 0.94 0.84 0.83 0.87 0.92 0.91 0.94 0.89 1.01 1.10 1.01 0.95 0.94 1.08 1.08 1.07 1.04 1.02 1.00 1.00 1.00 0.94 0.97 1.01 1.06 1.09 1.05 0.98 0.94 0.92 0.87 0.83 0.81 0.80 0.85 0.89 0.87 0.79 0.70
0.93 0.94 0.98 1.01 1.03 0.98 0.97 0.93 0.95 0.96 0.96 0.92 0.92 0.97 1.05 1.08 0.99 0.95 1.01 1.01 1.08 1.11 1.03 0.98 0.94 0.87 0.86 0.91 0.93 1.00 1.03 1.01 0.98 0.95 0.84 0.81 0.78 0.77 0.77 0.82 0.85 0.85 0.84 0.83
0.98 0.97 0.99 1.10 1.13 1.16 1.18 1.12 1.04 1.00 1.04 1.00 0.92 0.88 0.92 1.02 1.11 1.13 1.09 0.99 1.00 1.04 0.99 0.96 0.87 0.79 0.78 0.80 0.86 0.88 0.92 0.97 0.97 0.87 0.77 0.74 0.76 0.75 0.73 0.78 0.81 0.83 0.76 0.76
0.99 0.93 0.90 1.02 1.08 1.10 1.12 1.10 1.07 1.04 1.09 1.02 0.86 0.85 0.93 1.03 1.07 1.07 1.03 0.99 0.99 1.01 0.97 0.91 0.82 0.75 0.74 0.75 0.81 0.84 0.89 0.89 0.87 0.80 0.78 0.75 0.75 0.75 0.73 0.75 0.78 0.80 0.76 0.75
0.88 0.85 0.79 0.84 0.92 0.98 1.02 1.09 1.11 1.00 0.96 0.94 0.89 0.89 0.94 1.03 1.03 1.03 1.05 1.07 1.11 1.12 1.00 0.84 0.84 0.83 0.80 0.83 0.83 0.80 0.84 0.86 0.87 0.86 0.82 0.83 0.82 0.81 0.84 0.84 0.82 0.81 0.79 0.78
0.78 0.79 0.80 0.79 0.80 0.91 0.98 0.98 0.96 0.91 0.87 0.90 0.91 0.93 0.98 0.99 0.97 1.00 1.06 1.15 1.13 1.02 0.92 0.84 0.77 0.82 0.82 0.89 0.91 0.84 0.86 0.85 0.86 0.88 0.90 0.89 0.92 0.90 0.85 0.82 0.79 0.79 0.79 0.76
0.80 0.80 0.81 0.80 0.80 0.82 0.85 0.80 0.80 0.84 0.85 0.89 0.96 1.04 1.07 1.00 0.92 0.95 1.02 1.12 1.10 0.98 0.89 0.86 0.79 0.83 0.83 0.90 0.94 0.85 0.81 0.82 0.81 0.79 0.77 0.81 0.86 0.87 0.83 0.80 0.76 0.72 0.71 0.74
0.87 0.83 0.75 0.72 0.75 0.79 0.79 0.76 0.77 0.75 0.76 0.84 0.95 1.04 1.12 1.05 0.97 0.97 0.98 1.04 1.02 0.99 0.92 0.82 0.78 0.82 0.82 0.82 0.84 0.83 0.74 0.74 0.74 0.71 0.67 0.66 0.66 0.66 0.68 0.73 0.79 0.77 0.70 0.72
0.89 0.81 0.72 0.69 0.71 0.73 0.67 0.64 0.69 0.76 0.77 0.80 0.86 0.94 1.02 0.96 0.93 0.97 0.98 0.95 0.93 0.97 0.93 0.91 0.93 0.85 0.72 0.66 0.78 0.83 0.78 0.76 0.75 0.69 0.63 0.61 0.62 0.63 0.64 0.63 0.66 0.66 0.66 0.66
0.89 0.83 0.77 0.68 0.66 0.68 0.68 0.68 0.66 0.72 0.77 0.79 0.80 0.86 0.90 0.91 0.88 0.84 0.82 0.88 0.90 0.85 0.81 0.89 0.91 0.81 0.71 0.64 0.69 0.73 0.75 0.74 0.72 0.70 0.69 0.67 0.68 0.71 0.69 0.65 0.63 0.62 0.63 0.65
0.98 0.88 0.78 0.73 0.75 0.77 0.77 0.74 0.72 0.71 0.80 0.83 0.81 0.84 0.86 0.87 0.86 0.80 0.74 0.78 0.86 0.83 0.76 0.79 0.82 0.78 0.67 0.62 0.65 0.69 0.69 0.67 0.68 0.66 0.67 0.72 0.73 0.72 0.68 0.66 0.67 0.68 0.69 0.72
1.13 1.04 0.94 0.85 0.78 0.77 0.80 0.83 0.82 0.76 0.81 0.89 0.88 0.83 0.84 0.81 0.74 0.71 0.75 0.80 0.83 0.83 0.75 0.71 0.75 0.76 0.67 0.64 0.67 0.66 0.62 0.61 0.60 0.60 0.64 0.70 0.70 0.72 0.71 0.70 0.72 0.71 0.70 0.71
1.18 1.15 1.08 0.94 0.82 0.79 0.83 0.90 0.89 0.83 0.79 0.82 0.82 0.80 0.81 0.77 0.72 0.70 0.76 0.83 0.85 0.82 0.78 0.76 0.77 0.77 0.76 0.74 0.76 0.75 0.74 0.74 0.72 0.69 0.69 0.69 0.68 0.69 0.67 0.65 0.67 0.69 0.68 0.66